sat.trackr.live / text

‹ back to catalog

STARLINK-33618

NORAD 63374 · 2025-063M

PAYLOAD ACTIVE UNKNOWN

§ Identity

Operator
Country
US
Launch date
2025-03-26
Launch site
AFWTR
Launch vehicle
Mass (kg)
RCS (m²)

Purposes: comms

External: N2YO · Heavens-Above · Gunter

§ Orbital elements

Epoch: 2026-05-25T04:00:03.998880Z

Period
93.90 min
Inclination
53.1609°
Eccentricity
0.0001713
Mean motion
15.33549733 rev/d
Perigee alt
464.1 km
Apogee alt
466.4 km
Semi-major
6,843.4 km
B*
2.0774e-3
RAAN
54.5648°
Arg perigee
81.2964°
Mean anomaly
2.6671°
Rev number
586

§ Raw data

STARLINK-336181 63374U 25063M   26145.16671295  .00068578  00000+0  20774-2 0  99992 63374  53.1609  54.5648 0001713  81.2964   2.6671 15.33549733  5867

JSON: /api/v1/satellites/63374 · /tle

For live sub-satellite position, see the globe view (requires WebGL).

§ Visibility from observer

Set your observer location to see the next 7 days of passes ≥ 10°. The values pass through the URL so the page stays shareable.

No JS? Fill the form by hand. The geolocation button needs JavaScript.